Regional Weather Roundup
Issued by NWS Cleveland, OH

Home | Current Version | Previous Version | Graphics & Text | Print | Product List | Glossary On
Versions: 1 2 3 4 5 6 7 8 9 10 11 12 13 14 15 16 17 18 19 20 21 22 23 24 25 26 27 28 29 30 31 32 33 34 35 36 37 38 39 40 41 42 43 44 45 46 47 48 49 50
000
ASUS41 KCLE 231300
RWRCLE
OHIO REGIONAL WEATHER ROUNDUP
NATIONAL WEATHER SERVICE WILMINGTON, OH
900 AM EDT MON OCT 23 2017

NOTE: "FAIR" INDICATES FEW OR NO CLOUDS BELOW 12,000 FEET WITH NO
SIGNIFICANT WEATHER AND/OR OBSTRUCTIONS TO VISIBILITY.

OHZ001>008-015>018-024>027-034-035-043-044-231400-
   NORTHWEST OHIO

CITY           SKY/WX    TMP DP  RH WIND       PRES   REMARKS
DEFIANCE       MOCLDY    63  52  67 SE5       29.85F
FINDLAY        PTSUNNY   64  51  62 SE9       29.87F
TOLEDO EXPRESS FAIR      64  54  69 SE6       29.87F
TOLEDO EXEC    CLOUDY    65  53  65 SE10      29.89F
LIMA           PTSUNNY   64  54  69 SE10      29.86F
$$

OHZ009>014-019>023-028>033-038-089-231400-
   NORTHEAST OHIO

CITY           SKY/WX    TMP DP  RH WIND       PRES   REMARKS
CLE-HOPKINS    CLOUDY    65  52  62 SE12      29.98F
CLE-LAKEFRONT  CLOUDY    65  50  58 SE16G22   29.95F
CUY CO. ARPT   CLOUDY    64  52  63 SE12      29.98F
LORAIN-ELYRIA  NOT AVBL
ASHTABULA      CLOUDY    62  52  69 SE12      30.02S
AKRON-CANTON   CLOUDY    63  49  60 SE13      29.99F
WOOSTER        NOT AVBL
MANSFIELD      CLOUDY    63  53  70 SE13      29.94F
YOUNGSTOWN     CLOUDY    60  51  72 SE13      30.02F
$$

OHZ042-051>053-060>062-070>072-077>081-231400-
  SOUTHWEST OHIO

CITY           SKY/WX    TMP DP  RH WIND       PRES   REMARKS
CINC-COVINGTON LGT RAIN  63  59  87 SE12      29.81F
CINC-LUNKEN    LGT RAIN  65  59  81 SE7       29.82F
HAMILTON       LGT RAIN  62  59  90 SE5       29.81F
DAYTON         NOT AVBL
WRIGHT-PAT AFB NOT AVBL
DAYTON GENERAL LGT RAIN  63  56  78 E8        29.82F
WILMINGTON     LGT RAIN  62  56  80 SE9       29.86F
$$

OHZ036-037-039>041-045>050-054>059-063>069-073>076-082>088-231400-
  CENTRAL AND SOUTHEAST OHIO

CITY           SKY/WX    TMP DP  RH WIND       PRES   REMARKS
COLUMBUS       CLOUDY    64  54  69 SE13      29.91F
OSU AIRPORT    FAIR      63  54  72 SE13      29.90F
BOLTON FIELD   SUNNY     63  54  72 SE6       29.91F
RICKENBACK AFB NOT AVBL
NEWARK         FAIR      65  53  65 E7        29.94F
MARION         FAIR      64  52  64 S12       29.92F
LANCASTER      FAIR      63  54  72 SE10      29.93F
ZANESVILLE     FAIR      65  53  65 SE8       29.96F
NEW PHILLY     FAIR      62  51  67 SE7       29.99F
$$




USA.gov is the U.S. government's official web portal to all federal, state and local government web resources and services.